Location: Newark
(34.6000°N, 98.3833°W)
Time: 08:26:43
(UTC+00:00)

OTV 5 (USA 277) - Visible Passes

Search period start: 15 October 2019 00:00
Search period end: 25 October 2019 00:00
Orbit: 310 x 324 km, 54.5° (Epoch: 08 October)

Date Brightness Start Highest point End Pass type
(mag) Time Alt. Az. Time Alt. Az. Time Alt. Az.
17 Oct ? 11:58:43 10° N 12:00:03 13° NE 12:01:23 10° ENE visible
18 Oct ? 12:12:18 10° NNW 12:14:48 31° NE 12:17:17 10° ESE visible
20 Oct ? 11:08:49 17° NNE 11:09:33 19° NE 11:11:37 10° E visible
21 Oct ? 11:23:36 43° N 11:24:13 59° NE 11:26:53 10° SE visible
22 Oct ? 11:38:32 33° WSW 11:38:42 33° SW 11:41:12 10° SSE visible
23 Oct ? 11:53:36 10° SW 11:53:36 10° SW 11:53:37 10° SW visible
